Location: Archemont
(49.1579°N, 1.7598°E)
Time: 09:41:46
(UTC+00:00)

deb Explorer IX - Pass Details

Date: 22 April 2024
Orbit: 513 x 891 km, 38.7° (Epoch: 23 May)

Event Time Altitude Azimuth Distance (km) Brightness Sun altitude
Rises 10:17:10 0° 223° (SW) 3,317 ? 48.4°
Reaches altitude 10° 10:20:07 10° 208° (SSW) 2,445 ? 48.7°
Maximum altitude 10:24:31 22° 160° (SSE) 1,801 ? 49.1°
Drops below altitude 10° 10:29:07 10° 111° (ESE) 2,562 ? 49.5°
Sets 10:32:16 0° 97° (E) 3,517 ? 49.8°
